Temperature
-2 -1 -1 -1 -1 -0 -1 -0 -0 0 1 1 2 2 2 2 2 2 2 2 3 4 4 6 7 8 10 10 11 12 13 13 14 14 14 13 13 13 13 13 13 13 12 12
-2 -1 -0 -0 0 0 0 -0 -0 0 1 1 1 1 1 1 2 2 2 2 2 3 4 5 6 7 9 10 11 11 12 13 13 13 13 13 13 12 12 12 12 12 12 12
-2 -1 -1 -1 -0 -0 -0 -0 -1 -0 0 0 0 1 1 1 1 1 1 1 2 2 3 4 5 6 8 9 10 10 11 12 12 12 12 13 13 12 12 12 12 12 12 12
-3 -3 -3 -1 -0 -0 -0 -1 -1 -0 -0 -0 0 1 1 1 1 1 1 1 1 2 3 4 5 6 7 8 9 10 11 11 11 12 12 12 12 12 12 12 11 11 11 11
-3 -3 -3 -1 -0 -1 -1 -1 -1 -1 -0 -0 0 1 1 1 1 1 1 1 1 2 3 4 5 6 7 7 8 9 10 10 11 11 11 12 12 12 11 11 11 11 11 11
-4 -3 -2 -1 0 0 -1 -1 -1 -1 -1 -1 -1 -1 0 1 1 1 1 1 2 2 3 4 5 5 6 7 8 8 9 9 10 10 11 11 11 11 11 11 11 11 10 11
-4 -4 -3 -1 -0 -0 -2 -2 -0 -0 -1 -1 -1 -1 0 0 1 1 1 1 2 2 3 3 4 5 5 6 7 8 8 9 9 10 10 10 11 11 11 11 10 10 10 10
-5 -4 -3 -1 -1 -1 -2 -0 -0 -0 -0 -1 -0 -0 -0 -0 0 0 1 1 1 2 3 3 4 4 5 6 6 7 7 8 8 9 9 9 9 10 10 10 10 9 9 10
-4 -3 -2 -1 -1 -0 0 -0 -0 -0 -0 -0 -1 -1 -1 -1 -0 -0 0 1 1 1 2 3 3 4 4 5 6 6 7 7 8 8 8 9 9 9 9 9 9 9 9 9
-5 -4 -3 -1 -0 -0 -0 -0 -0 -1 -1 -1 -1 -1 -1 -1 -1 -0 0 0 1 1 2 3 3 3 4 4 5 5 6 6 7 7 7 8 8 8 8 8 8 8 9 9
-5 -4 -3 -2 -1 -0 -1 -1 -1 -1 -1 -1 -1 -1 -1 -1 -1 -1 -0 -0 0 0 1 2 3 3 3 4 4 5 5 6 6 6 7 7 7 8 8 8 9 9 9 9
-4 -3 -3 -3 -1 -1 -1 -2 -2 -2 -2 -2 -2 -2 -2 -2 -1 -1 -1 -1 -0 0 1 1 2 3 3 3 4 4 4 5 5 5 6 6 7 7 7 8 8 8 8 8
-2 -2 -2 -2 -2 -2 -2 -2 -2 -2 -2 -2 -2 -2 -2 -2 -2 -2 -1 -1 -1 -0 0 1 1 2 3 3 3 3 4 4 4 5 5 5 6 6 6 7 7 7 7 8
-2 -3 -3 -3 -3 -3 -3 -3 -3 -3 -3 -3 -3 -3 -3 -3 -2 -2 -2 -2 -1 -1 -0 0 1 1 2 3 3 3 3 4 4 4 4 5 5 5 6 6 6 6 6 7
-3 -3 -3 -3 -3 -3 -4 -4 -4 -4 -4 -3 -3 -3 -3 -3 -3 -3 -2 -2 -2 -2 -1 -0 0 1 2 2 3 3 3 3 4 4 4 4 4 5 5 5 5 6 6 6
-4 -4 -4 -4 -4 -4 -4 -4 -5 -5 -4 -4 -4 -4 -4 -4 -4 -4 -3 -3 -3 -2 -2 -1 -0 0 1 1 2 2 2 3 3 3 4 4 4 4 4 5 5 5 5 5
-5 -5 -5 -5 -5 -5 -5 -5 -5 -5 -5 -5 -5 -5 -5 -5 -4 -4 -4 -4 -3 -3 -2 -2 -1 -0 0 1 1 2 2 2 3 3 3 4 4 4 4 4 4 4 4 5
-5 -5 -6 -6 -6 -6 -6 -6 -6 -6 -6 -6 -6 -5 -5 -5 -5 -5 -4 -4 -4 -3 -3 -2 -2 -1 -0 0 1 1 2 2 2 3 3 3 3 3 3 4 4 4 4 4
-6 -6 -6 -6 -6 -6 -6 -6 -6 -6 -6 -6 -6 -6 -6 -6 -5 -5 -5 -5 -4 -4 -3 -3 -2 -2 -1 -0 0 1 1 2 2 2 3 3 2 2 3 3 3 3 3 4
-6 -6 -6 -6 -6 -7 -7 -7 -7 -7 -7 -7 -7 -7 -6 -6 -6 -5 -5 -5 -4 -4 -4 -3 -3 -2 -2 -1 -0 0 1 1 1 2 2 2 2 2 2 2 3 3 3 3
-6 -7 -7 -7 -7 -7 -7 -7 -7 -7 -7 -7 -7 -7 -7 -6 -6 -6 -5 -5 -4 -4 -4 -3 -3 -3 -2 -1 -1 -0 0 1 1 1 1 1 1 1 2 2 2 2 2 2
-7 -7 -7 -7 -8 -7 -7 -7 -7 -7 -7 -7 -8 -7 -7 -7 -6 -6 -5 -5 -5 -4 -4 -4 -3 -3 -2 -2 -1 -1 -1 -0 0 1 1 1 1 1 1 1 1 1 2 2
-8 -8 -8 -8 -8 -8 -8 -8 -8 -8 -8 -8 -8 -8 -7 -7 -7 -6 -6 -5 -5 -5 -4 -4 -4 -3 -3 -2 -2 -1 -1 -1 -0 -0 0 0 0 1 1 1 1 1 1 1
-8 -8 -9 -9 -9 -9 -8 -8 -8 -8 -8 -8 -8 -8 -7 -7 -7 -6 -6 -6 -5 -5 -4 -4 -4 -3 -3 -3 -2 -2 -2 -1 -1 -1 -1 -0 -0 0 0 0 1 1 1 1
-9 -9 -9 -9 -9 -9 -9 -9 -9 -8 -8 -8 -8 -7 -7 -7 -7 -6 -6 -6 -5 -5 -5 -4 -4 -4 -3 -3 -2 -2 -2 -2 -1 -1 -1 -1 -1 -0 -0 -0 0 0 0 1
-9 -9 -9 -10 -10 -10 -10 -10 -9 -9 -9 -9 -8 -8 -7 -7 -7 -7 -6 -6 -6 -5 -5 -4 -4 -4 -4 -3 -3 -3 -2 -2 -2 -2 -1 -1 -1 -1 -1 -1 -0 -0 0 0
-10 -10 -10 -10 -10 -10 -10 -10 -10 -10 -10 -9 -9 -8 -8 -7 -7 -7 -7 -6 -6 -6 -5 -5 -5 -4 -4 -4 -3 -3 -3 -2 -2 -2 -2 -2 -1 -1 -1 -1 -1 -0 -0 -0
Wind_Speed
11 12 9 11 12 9 7 7 7 8 9 11 11 10 9 9 10 11 12 12 12 12 11 10 9 7 5 4 3 5 8 10 12 13 14 14 13 13 14 14 15 15 14 13
7 9 9 11 12 10 9 8 9 10 11 9 9 7 7 8 9 11 12 13 13 12 12 11 10 8 6 4 3 3 6 8 8 9 10 12 13 13 13 14 14 14 15 14
6 7 7 7 6 5 5 4 5 7 9 9 9 10 7 7 8 10 12 12 13 12 11 11 10 8 6 5 3 3 4 6 6 7 9 10 11 13 13 14 13 14 14 14
4 4 6 6 3 4 6 7 5 6 8 8 10 10 6 4 6 9 11 12 12 12 11 10 10 8 6 4 2 1 2 3 5 6 7 8 9 12 12 11 12 13 13 14
2 4 8 6 3 2 4 6 4 6 9 9 9 7 5 5 6 8 9 10 10 10 10 10 10 8 5 3 2 0 1 2 4 6 7 8 9 10 10 10 11 11 12 13
3 4 6 6 4 2 1 5 5 5 8 8 6 5 7 9 9 10 9 9 9 9 9 9 9 7 4 3 2 2 2 2 3 5 7 8 9 8 7 8 9 9 10 11
6 6 8 7 3 1 2 6 6 5 6 6 4 6 8 10 10 9 10 10 10 9 8 8 8 6 5 3 3 3 2 1 1 4 5 6 6 6 7 7 8 8 9 9
5 6 9 4 2 4 6 5 5 6 6 7 7 9 9 9 10 10 10 11 10 9 8 7 7 5 5 5 4 2 1 0 1 2 3 4 6 6 7 8 9 8 8 7
9 9 6 4 6 6 5 5 6 6 8 7 8 8 9 9 9 9 9 10 9 8 9 8 6 5 5 5 4 2 1 1 1 1 3 4 6 7 7 7 7 7 7 7
6 9 8 8 7 6 6 7 8 8 8 7 8 9 10 9 9 9 9 9 8 8 8 8 7 6 5 4 3 1 1 1 1 2 2 3 3 5 6 7 7 7 7 7
8 9 8 8 7 7 7 6 7 8 7 7 8 9 8 8 9 9 9 8 8 7 8 9 8 6 5 4 2 1 0 1 1 2 2 2 2 2 4 5 7 9 8 8
10 8 7 8 6 6 7 8 8 8 8 7 6 8 8 8 8 8 8 8 8 8 8 8 7 7 5 3 1 1 0 1 1 1 2 2 2 2 4 4 6 7 8 8
11 8 8 9 8 7 8 8 8 8 8 8 7 7 8 8 7 7 7 8 8 8 8 8 7 7 6 4 1 1 2 2 1 2 2 2 3 4 4 5 7 8 9 10
8 6 7 7 7 7 8 8 7 7 7 7 7 7 7 7 7 7 8 8 8 8 8 8 7 7 6 4 2 2 2 2 2 2 2 3 3 4 4 6 5 4 6 10
7 7 8 8 8 7 7 6 7 7 7 7 6 6 7 7 8 8 8 8 8 8 8 7 7 7 6 4 2 2 2 2 2 2 2 3 3 4 4 5 5 5 5 7
6 5 6 7 8 8 7 6 7 8 7 7 7 7 7 7 8 8 7 7 7 9 8 8 8 7 6 4 3 2 2 2 2 2 2 4 4 5 5 5 6 6 6 7
4 5 5 6 7 7 7 7 7 8 8 8 8 8 8 8 8 8 7 7 7 9 9 8 8 8 5 4 3 3 2 2 3 2 3 4 4 5 5 6 6 6 5 6
4 5 6 6 7 8 8 7 7 8 8 8 8 8 8 8 9 9 8 8 8 9 8 8 7 7 6 4 3 3 3 3 3 4 4 4 4 5 5 6 7 7 6 6
3 4 5 6 6 6 7 8 8 8 8 7 8 8 8 8 8 9 8 8 8 9 9 7 10 8 6 5 4 3 4 4 4 4 4 6 5 5 6 6 6 6 6 6
4 4 5 6 6 6 7 8 7 7 7 7 8 8 9 8 8 8 8 8 7 7 8 8 8 6 5 4 4 3 4 4 5 5 5 5 5 5 6 6 6 6 6 6
5 5 6 6 7 7 7 8 7 8 7 7 7 8 9 9 8 7 7 8 7 7 8 9 6 5 4 3 3 4 4 5 5 6 6 6 6 6 6 6 6 6 6 6
4 5 6 6 7 7 7 7 7 7 7 7 7 8 8 9 8 8 8 7 7 9 7 5 5 5 4 3 3 4 4 5 5 5 6 6 6 6 6 6 6 6 6 6
5 5 6 6 7 8 8 7 7 6 7 7 8 8 8 8 7 6 7 6 5 8 6 5 5 6 5 3 3 4 5 5 5 5 6 6 6 6 7 7 6 6 7 7
5 5 6 6 6 6 8 7 7 6 7 7 7 7 7 7 6 6 6 9 10 9 6 6 7 6 4 2 3 4 5 5 5 5 6 6 6 6 6 7 7 6 7 8
5 5 5 6 6 6 7 7 7 6 6 6 6 7 6 5 6 6 6 6 8 8 5 6 6 5 3 2 3 4 5 5 6 6 6 6 6 7 7 7 7 7 7 7
5 5 5 5 5 6 5 5 5 5 5 6 6 5 5 4 5 5 5 5 5 6 4 3 2 2 2 3 4 4 4 5 5 5 6 6 7 7 7 7 8 7 6 6
5 5 4 5 5 5 5 5 5 6 5 6 6 6 5 5 4 4 4 3 3 3 2 1 1 1 2 3 4 4 4 5 5 6 6 6 6 6 7 7 6 6 7 7
Wind_Direction
256 267 267 267 275 274 255 244 251 272 279 294 310 312 320 330 338 346 348 350 351 349 344 341 337 329 313 284 239 214 199 195 199 199 196 194 192 192 190 191 192 189 190 193
275 267 270 271 271 268 262 259 259 275 279 294 302 305 316 329 340 344 343 343 342 342 342 339 334 328 319 306 268 213 200 197 193 189 190 191 190 187 188 190 190 188 191 192
275 295 303 269 261 260 261 258 252 264 278 308 316 316 314 321 332 337 337 336 335 333 332 330 327 321 313 302 287 216 200 193 182 179 184 189 188 184 187 189 187 190 192 192
281 329 266 249 246 244 256 256 259 279 293 299 298 295 286 301 322 328 330 330 328 327 326 327 325 320 316 317 318 240 205 194 180 175 180 178 180 188 189 187 189 192 193 192
244 268 275 283 276 237 242 262 265 278 296 306 309 310 295 316 325 315 311 316 316 316 319 323 324 322 317 321 331 335 232 214 191 177 175 176 183 189 186 184 188 190 190 188
216 247 259 257 270 275 208 271 282 286 295 304 323 318 296 319 319 312 312 316 318 320 324 326 325 324 317 319 325 286 261 243 204 184 180 184 187 184 180 180 184 184 187 189
218 238 263 258 278 69 182 260 288 286 286 294 277 262 289 308 310 313 316 317 319 322 325 322 325 328 323 319 304 292 287 265 201 186 185 181 175 171 170 169 170 175 181 184
195 219 252 248 165 198 235 266 282 286 285 282 280 285 297 304 308 315 319 320 322 324 323 324 330 333 326 311 309 322 335 77 155 173 163 155 158 161 162 164 168 171 174 172
202 223 247 239 229 248 251 267 278 280 286 286 288 289 297 301 305 310 314 316 319 319 320 325 329 329 316 313 325 352 39 75 97 125 143 153 159 160 160 164 169 170 171 171
246 259 262 266 265 269 261 262 274 278 281 284 283 288 293 298 304 310 311 312 317 321 322 323 326 325 314 316 329 14 63 86 110 128 125 131 148 161 166 170 169 168 169 170
246 265 283 273 260 268 280 285 287 286 280 277 282 287 289 294 299 303 305 309 315 316 314 313 318 319 319 321 335 29 78 116 118 117 119 121 125 159 172 182 177 172 174 171
242 236 234 259 264 274 283 286 288 290 291 289 283 286 292 295 296 299 302 306 311 311 308 308 312 312 312 310 304 135 146 158 148 138 129 129 122 83 71 125 141 151 158 160
242 253 249 261 270 270 273 280 284 281 280 288 290 286 288 292 295 300 302 305 305 304 302 303 303 303 306 306 287 208 209 211 186 165 159 162 151 146 125 83 93 119 133 139
244 252 262 261 265 278 279 282 284 283 280 280 286 290 291 293 298 301 301 301 302 302 300 301 299 297 301 298 269 221 210 210 198 187 174 174 162 151 145 145 136 109 115 130
242 237 248 268 278 285 286 287 290 291 293 294 292 294 296 296 296 296 296 298 300 300 299 299 296 295 302 291 253 221 208 199 194 182 170 161 148 137 135 134 135 132 123 122
255 260 262 268 277 286 289 287 286 289 292 293 295 295 294 291 290 292 295 300 302 299 296 295 292 292 292 274 243 228 207 205 204 177 167 156 148 143 141 139 138 140 141 140
246 262 269 279 284 287 284 280 279 286 291 292 293 296 297 299 300 299 297 297 292 290 290 288 290 294 288 262 232 217 199 193 191 181 174 161 154 152 149 145 144 141 139 147
229 244 256 266 277 284 289 290 289 289 288 291 298 299 298 297 297 297 299 300 299 297 294 290 291 293 284 256 226 205 198 193 188 182 169 159 151 149 146 144 142 137 133 130
259 264 272 275 276 279 283 285 286 287 289 290 291 292 291 289 289 293 296 294 292 293 294 293 294 292 281 260 230 198 189 183 178 168 156 152 149 147 146 144 143 138 136 134
284 285 286 288 288 285 285 286 286 285 285 286 285 288 292 293 295 294 294 287 277 277 287 291 290 283 274 253 225 190 182 180 172 162 154 154 153 149 145 143 141 139 138 136
287 292 295 297 296 294 291 290 287 285 285 283 282 285 288 292 292 292 291 291 290 288 288 291 288 279 270 241 208 180 178 177 169 162 159 157 153 150 149 145 143 142 141 138
281 287 290 294 297 297 296 293 287 285 287 285 283 283 286 289 292 290 279 274 286 294 294 285 278 266 256 233 186 173 172 169 164 160 159 159 157 156 154 149 147 146 144 143
282 286 291 294 295 296 297 293 288 286 283 282 282 281 280 281 283 283 289 289 289 292 290 279 276 266 251 220 181 173 167 163 161 161 161 160 159 157 155 151 151 151 150 148
285 288 290 294 297 299 299 298 295 290 283 281 278 275 275 282 284 272 273 290 296 293 284 278 271 262 247 209 180 170 165 162 160 158 156 156 155 154 154 153 152 152 150 148
284 287 290 295 297 293 292 296 300 297 295 293 289 283 277 270 272 284 287 284 286 289 285 282 272 259 227 182 170 165 163 161 158 155 155 155 156 154 154 153 152 152 150 151
282 283 283 280 279 284 289 291 293 295 298 300 300 297 293 286 279 281 284 282 280 287 285 274 253 231 182 163 159 158 158 158 157 155 152 152 150 150 151 151 148 151 150 149
287 287 291 294 291 285 284 286 288 292 292 292 297 302 301 298 294 291 286 285 286 286 282 275 239 176 157 153 150 151 152 150 148 148 149 150 149 149 150 149 149 147 147 148
Height
1433 1427 1426 1423 1419 1416 1416 1413 1411 1402 1397 1391 1388 1385 1382 1379 1375 1372 1369 1365 1361 1358 1355 1353 1352 1352 1352 1354 1357 1361 1366 1370 1375 1381 1387 1393 1399 1404 1410 1415 1421 1426 1431 1436
1429 1422 1420 1416 1411 1410 1408 1406 1405 1401 1395 1390 1387 1384 1381 1379 1376 1373 1370 1366 1362 1359 1355 1352 1350 1350 1350 1351 1354 1357 1361 1365 1370 1375 1381 1387 1393 1398 1404 1409 1415 1420 1425 1429
1429 1421 1417 1414 1408 1406 1405 1403 1402 1399 1395 1390 1387 1383 1381 1378 1376 1373 1370 1366 1363 1359 1356 1352 1350 1349 1348 1349 1351 1354 1357 1361 1365 1370 1375 1381 1387 1393 1398 1403 1408 1414 1419 1423
1429 1427 1426 1411 1402 1402 1402 1399 1398 1396 1392 1389 1385 1381 1378 1377 1375 1372 1369 1366 1362 1358 1354 1351 1349 1347 1347 1347 1349 1351 1354 1357 1361 1365 1370 1375 1381 1387 1392 1397 1403 1408 1413 1418
1430 1429 1418 1406 1400 1400 1401 1397 1394 1393 1390 1386 1383 1379 1376 1374 1373 1371 1368 1365 1361 1357 1354 1350 1348 1346 1345 1346 1347 1348 1351 1353 1357 1361 1365 1370 1375 1381 1386 1392 1397 1402 1407 1412
1429 1426 1415 1404 1397 1395 1398 1397 1391 1389 1387 1385 1383 1382 1376 1373 1371 1368 1365 1362 1359 1355 1352 1349 1347 1345 1344 1344 1345 1346 1348 1351 1354 1357 1362 1366 1370 1375 1381 1386 1391 1397 1402 1407
1427 1423 1410 1398 1394 1395 1402 1397 1389 1386 1385 1383 1382 1380 1376 1372 1369 1366 1363 1359 1356 1353 1350 1348 1346 1344 1343 1343 1343 1344 1347 1349 1352 1355 1358 1362 1366 1371 1376 1381 1387 1392 1397 1402
1424 1422 1409 1392 1393 1395 1393 1387 1386 1384 1383 1381 1378 1376 1373 1370 1367 1364 1360 1357 1354 1351 1348 1346 1345 1343 1342 1342 1342 1343 1344 1347 1349 1352 1355 1359 1363 1367 1372 1377 1382 1387 1392 1397
1410 1403 1392 1389 1388 1387 1386 1385 1383 1381 1379 1378 1375 1373 1370 1367 1364 1361 1358 1355 1352 1349 1346 1345 1344 1342 1342 1341 1341 1341 1343 1345 1347 1350 1353 1356 1359 1363 1368 1373 1377 1382 1387 1391
1401 1392 1388 1385 1384 1383 1383 1381 1379 1378 1376 1374 1372 1369 1366 1364 1361 1358 1355 1353 1350 1347 1344 1342 1342 1341 1340 1340 1339 1340 1341 1343 1345 1348 1350 1353 1357 1360 1364 1368 1372 1377 1382 1386
1394 1388 1384 1381 1380 1379 1378 1377 1375 1373 1372 1370 1367 1365 1363 1360 1357 1355 1353 1350 1348 1345 1342 1340 1339 1339 1338 1338 1338 1338 1339 1341 1343 1346 1348 1351 1354 1358 1361 1365 1369 1373 1378 1382
1386 1381 1381 1377 1376 1375 1374 1372 1370 1369 1366 1365 1363 1361 1358 1356 1354 1352 1350 1348 1345 1343 1340 1338 1337 1336 1336 1336 1336 1337 1338 1339 1341 1344 1346 1349 1352 1355 1359 1364 1368 1372 1376 1380
1375 1374 1374 1372 1371 1370 1369 1367 1366 1364 1362 1360 1358 1357 1354 1352 1350 1348 1346 1345 1342 1340 1338 1336 1334 1334 1334 1335 1335 1335 1336 1338 1340 1342 1344 1346 1349 1352 1356 1361 1365 1370 1373 1378
1370 1370 1369 1367 1367 1365 1364 1362 1361 1359 1357 1355 1354 1352 1350 1348 1346 1344 1342 1341 1338 1336 1334 1333 1331 1331 1331 1332 1333 1333 1334 1336 1338 1340 1342 1344 1347 1350 1354 1357 1361 1366 1371 1375
1365 1365 1364 1363 1362 1360 1359 1357 1355 1353 1352 1350 1348 1347 1345 1343 1342 1340 1338 1337 1335 1333 1331 1329 1328 1328 1328 1329 1330 1331 1332 1333 1335 1338 1340 1343 1346 1349 1352 1356 1359 1363 1367 1372
1359 1359 1359 1358 1356 1355 1354 1352 1350 1348 1347 1345 1343 1342 1340 1339 1337 1335 1334 1332 1330 1328 1327 1326 1325 1325 1325 1326 1327 1328 1329 1331 1333 1335 1338 1341 1343 1347 1350 1354 1357 1361 1365 1369
1355 1354 1353 1352 1351 1350 1349 1347 1346 1344 1342 1340 1338 1337 1335 1333 1332 1330 1329 1328 1326 1324 1323 1322 1321 1321 1322 1322 1324 1325 1326 1328 1330 1333 1336 1338 1341 1345 1348 1351 1355 1359 1363 1368
1350 1350 1349 1348 1347 1345 1344 1342 1341 1339 1338 1336 1334 1332 1330 1329 1327 1325 1324 1323 1321 1319 1318 1318 1317 1317 1318 1319 1320 1321 1323 1325 1328 1330 1333 1336 1340 1343 1346 1350 1353 1357 1361 1366
1346 1346 1345 1344 1342 1341 1339 1338 1336 1334 1333 1331 1329 1328 1326 1324 1323 1321 1320 1318 1316 1314 1314 1314 1313 1313 1314 1314 1316 1318 1320 1322 1325 1328 1331 1334 1338 1341 1344 1348 1352 1356 1360 1364
1342 1341 1340 1339 1338 1336 1334 1332 1331 1329 1327 1326 1324 1322 1320 1319 1318 1317 1315 1313 1311 1311 1310 1310 1310 1310 1310 1311 1313 1314 1317 1319 1322 1325 1328 1332 1335 1338 1342 1346 1350 1354 1358 1362
1338 1337 1336 1334 1333 1331 1329 1327 1325 1323 1322 1321 1319 1317 1315 1314 1313 1312 1310 1307 1307 1307 1307 1306 1306 1306 1307 1308 1309 1311 1314 1316 1319 1322 1326 1329 1332 1336 1340 1343 1348 1352 1356 1360
1334 1333 1331 1330 1328 1326 1324 1322 1320 1318 1317 1315 1314 1312 1310 1309 1308 1307 1305 1304 1303 1303 1303 1303 1303 1303 1304 1305 1307 1309 1311 1314 1316 1320 1323 1326 1330 1334 1337 1341 1345 1350 1354 1358
1330 1329 1327 1326 1323 1321 1319 1317 1315 1314 1312 1310 1309 1307 1306 1304 1303 1302 1300 1300 1300 1299 1299 1299 1299 1300 1301 1302 1304 1306 1308 1311 1314 1317 1320 1324 1328 1331 1335 1339 1343 1348 1352 1357
1326 1325 1323 1321 1319 1317 1314 1312 1311 1309 1307 1306 1304 1303 1302 1300 1298 1297 1297 1296 1296 1295 1295 1295 1296 1297 1298 1299 1301 1303 1306 1308 1312 1315 1318 1322 1326 1329 1333 1337 1341 1346 1350 1355
1323 1321 1319 1317 1315 1312 1310 1308 1306 1304 1302 1301 1299 1298 1297 1295 1294 1292 1292 1291 1291 1291 1291 1291 1292 1293 1295 1296 1298 1300 1303 1306 1309 1312 1316 1319 1323 1327 1331 1335 1339 1344 1348 1353
1319 1317 1315 1313 1311 1309 1307 1304 1302 1300 1298 1296 1294 1293 1292 1291 1289 1288 1288 1287 1287 1287 1287 1288 1289 1290 1291 1293 1295 1298 1300 1304 1307 1310 1313 1317 1321 1325 1329 1333 1338 1342 1346 1351
1315 1313 1311 1309 1307 1305 1303 1301 1299 1296 1295 1292 1290 1289 1288 1286 1285 1284 1284 1283 1283 1283 1283 1284 1285 1286 1288 1290 1292 1295 1298 1301 1305 1308 1311 1315 1319 1323 1328 1332 1336 1341 1345 1350